Regional Weather Roundup
Issued by NWS Sterling, VA

Home | Current Version | Previous Version | Text Only | Print | Product List | Glossary Off
Versions: 1 2 3 4 5 6 7 8 9 10 11 12 13 14 15 16 17 18 19 20 21 22 23 24 25 26 27 28 29 30 31 32 33 34 35 36 37 38 39 40 41 42 43 44 45 46 47 48 49 50

553
ASUS41 KLWX 290511
RWRLWX

REGIONAL WEATHER ROUNDUP
NATIONAL WEATHER SERVICE BALTIMORE MD/WASHINGTON DC
100 AM EDT MON AUG 29 2016

Note: "FAIR" indicates few or no clouds below 12,000 feet
with no significant weather and/or obstructions to visibility.
 TC=TEMPERATURE CELSIUS

 * =Non NWS site. Station does not report precipitation (e.g. rain,
    snow, etc.), thunder, or fog.

DCZ001-MDZ009-015-VAZ040>042-051-053>054-290600-
WASHINGTON METRO

CITY           SKY/WX    TMP DP  RH WIND       PRES   REMARKS
WASHINGTON NAT MOCLDY    77  66  68 CALM      30.20S
DULLES         MOCLDY    70  64  81 CALM      30.20S
ANDREWS AFB    CLEAR     69  65  87 CALM      30.19R
FT BELVOIR     CLEAR     69  66  92 CALM      30.19S
QUANTICO       CLEAR     73  69  87 NW7       30.19S
COLLEGE PARK*  CLEAR     70  66  88 CALM      30.19S
LEESBURG*      PTCLDY    72  68  88 CALM      30.21F
MANASSAS*      CLEAR     68  68 100 CALM      30.20R
GAITHERSBURG*  PTCLDY    70  64  83 CALM      30.24F

$$

MDZ006>007-011-014-290600-
BALTIMORE METRO

CITY           SKY/WX    TMP DP  RH WIND       PRES   REMARKS
BWI AIRPORT    PTCLDY    70  65  84 CALM      30.19S
MD SCIENCE CTR   N/A     78  65  63 MISG      30.19F
MARTIN STATE   PTCLDY    73  72  94 CALM      30.20S
ANNAPOLIS      PTCLDY    77  68  73 S5        30.17F
FORT MEADE*    CLEAR    N/A N/A N/A CALM      30.21F

$$

MDZ012-015-019>023-290600-
MARYLAND EASTERN SHORE

CITY           SKY/WX    TMP DP  RH WIND       PRES   REMARKS
OCEAN CITY     CLEAR     68  65  90 N3        30.18R
SALISBURY      CLEAR     66  64  93 NW3       30.19R
BAY BRIDGE AP* PTCLDY    72  68  88 CALM      30.19S
CAMBRIDGE*     PTCLDY    64  63  94 CALM      30.18F
EASTON*        PTCLDY    70  69  98 CALM      30.22F

$$

MDZ017>025-290600-
SOUTHERN MARYLAND

CITY           SKY/WX    TMP DP  RH WIND       PRES   REMARKS
PATUXENT RIVER CLEAR     73  66  78 E7        30.17F
ST INIGOES     CLEAR     69  66  90 CALM      30.17F
LEONARDTOWN*   CLEAR     66  63  88 CALM      30.20S

$$

MDZ003>005-290600-
NORTH CENTRAL MARYLAND

CITY           SKY/WX    TMP DP  RH WIND       PRES   REMARKS
FREDERICK*     PTCLDY    68  68 100 CALM      30.22F
HAGERSTOWN APT PTCLDY    76  64  66 S3        30.20F

$$

MDZ501>502-290600-
WESTERN MARYLAND

CITY           SKY/WX    TMP DP  RH WIND       PRES   REMARKS
OAKLAND*       MOCLDY    63  63 100 E6        30.29F
CUMBERLAND*    PTCLDY    77  63  61 CALM      30.23F

$$

VAZ025>031-290600-
SHENANDOAH VALLEY

CITY           SKY/WX    TMP DP  RH WIND       PRES   REMARKS
WINCHESTER*    CLOUDY    72  64  78 CALM      30.22S
FRONT ROYAL*   FAIR      68  64  88 W5        30.21S
LURAY*         FAIR     N/A N/A N/A CALM      30.22S
NEW MARKET*    FAIR     N/A N/A N/A CALM      30.22S
STAUNTON*      PTCLDY    68  64  88 CALM      30.25S
WAYNESBORO*    FAIR      67  63  87 CALM      30.25S

$$

WVZ021-048>050-054>055-290600-
EASTERN WEST VIRGINIA PANHANDLE

CITY           SKY/WX    TMP DP  RH WIND       PRES   REMARKS
MARTINSBURG    PTCLDY    73  65  75 CALM      30.20F
PETERSBURG*    CLOUDY    75  70  84 SE5       30.22F

$$

VAZ036>039-050-290600-
CENTRAL FOOTHILLS

CITY           SKY/WX    TMP DP  RH WIND       PRES   REMARKS
CHARLOTTESVILL CLEAR     71  65  81 CALM      30.21S
CULPEPER*      CLEAR     68  68  99 N3        30.20F
ORANGE*          N/A     70  70 100 CALM      30.22S
GORDONSVILLE*  FAIR      66  66 100 CALM      30.19F
WARRENTON*     FAIR      66  61  84 CALM      30.20S

$$

VAZ055>057-290600-
NORTH AND CENTRAL PIEDMONT

CITY           SKY/WX    TMP DP  RH WIND       PRES   REMARKS
FREDERICKSBRG* CLEAR     68  68 100 CALM      30.17F
STAFFORD*      CLEAR     66  65  97 CALM      30.23S

$$

NCZ024-NYZ072-PAZ021-071-VAZ022-071-290600-
OTHER REGIONAL OBSERVATIONS

CITY           SKY/WX    TMP DP  RH WIND       PRES   REMARKS
NEW YORK CITY  CLOUDY    75  64  68 VRB3      30.19F
PHILADELPHIA   PTCLDY    75  68  78 S9        30.17F
PITTSBURGH     MOCLDY    70  66  87 CALM      30.22F
ROANOKE        CLEAR     68  63  84 W3        30.24S
RICHMOND       PTCLDY    70  67  90 N5        30.18S
RALEIGH        CLOUDY    76  69  79 NE5       30.17R

$$

ANZ530>537-290600-
MARINE OBSERVATIONS

STATION/POSITION TIME  TEMP    WIND        PRES
                       AIR SEA DIR/SP/G
                 (UTC) (F)     (DEG/KT/KT) (MB)
THOMAS PT LIGHT  0500   77 83  140/  6/  7 1023.4F
BALT KEY BRIDGE  0448   77     180/  3/  4 1022.0F
COVE POINT       0448   76     140/  8/ 11 1022.5F
LEWISETTA        0448   78 84  120/  8/ 10 1021.4F
SOLOMONS ISLAND  0442   77 84  100/  7/  8   N/A
PINEY POINT      0448           70/  4/  5   N/A

$$





USA.gov is the U.S. government's official web portal to all federal, state and local government web resources and services.